Location: Al ‘Aqabah a? ?agh?rah
(24.2365°N, 32.8809°E)
Time: 02:01:53
(UTC+00:00)

Daily predictions for brighter satellites

Satellite Brightness Start Highest point End
(mag) Time Altitude Azimuth Time Altitude Azimuth Time Altitude Azimuth
ADEOS II 2.9 00:05:32 10° NNE 00:09:23 47° NE 00:09:23 47° NE
Cosmos 2263 Rocket 4.4 00:07:44 10° NNE 00:11:53 21° ENE 00:16:00 10° ESE
Envisat 4.0 00:09:10 10° NNE 00:13:00 44° ENE 00:13:00 44° ENE
Cosmos 2297 Rocket 4.0 00:13:05 10° NNW 00:15:01 22° NW 00:15:01 22° NW
CZ-2D R/B 3.0 00:16:22 10° N 00:19:52 42° NNW 00:19:52 42° NNW
Cosmos 1980 Rocket 3.4 00:23:29 31° NNW 00:23:29 31° NNW 00:27:01 10° N
Cosmos 1238 Rocket 4.3 00:17:40 10° N 00:22:35 44° E 00:22:35 44° E
SeaSat 1 4.1 00:31:57 24° NNW 00:31:57 24° NNW 00:33:54 10° NNW
Meteor 2-6 Rocket 4.3 00:25:32 10° N 00:31:03 81° NNE 00:31:03 81° NNE
Milstar 3 Cent rocket 3.3 00:35:28 32° SE 00:35:28 32° SE 00:38:36 10° E
Nadezhda 1 Rocket 4.1 00:29:17 10° NNW 00:34:36 59° NW 00:34:36 59° NW
Resurs 1-4 Rocket 3.2 00:31:01 10° N 00:34:32 34° NW 00:34:32 34° NW
CENTAUR R/B 3.2 00:37:30 30° ESE 00:38:02 31° ESE 00:42:52 10° NE
Cosmos 1709 Rocket 4.4 00:41:17 50° WNW 00:41:17 50° WNW 00:46:54 10° N
H-2A R/B 2.9 00:41:19 10° NNE 00:45:54 39° E 00:46:59 35° SE
Cosmos 2278 4.0 00:46:45 51° SE 00:47:41 58° ESE 00:53:12 10° NNE
Cosmos 614 Rocket 4.0 00:45:00 10° N 00:50:01 71° ENE 00:50:54 57° SE
Cosmos 2227 Rocket 2.2 00:44:31 10° NNW 00:49:40 67° WNW 00:49:40 67° WNW
OAO 3 Rocket 3.3 00:55:58 61° ESE 00:55:58 61° ESE 01:00:03 10° ENE
AQUA 3.8 00:53:34 10° N 00:57:53 67° NW 00:57:53 67° NW
Cosmos 2360 Rocket 3.6 00:57:24 20° SSE 01:00:17 33° ESE 01:05:13 10° NE
Yuri Rocket 3.5 01:04:30 45° NNW 01:05:04 48° N 01:09:16 10° ENE
CZ-2C R/B 3.6 01:04:43 10° NNE 01:09:25 40° E 01:12:36 19° SSE
ASC 2 Rocket 3.3 01:10:00 58° S 01:10:21 60° SSE 01:16:22 10° E
ALOS 3.8 01:08:19 10° NNW 01:10:57 22° NW 01:10:57 22° NW
USA 290 3.2 01:09:14 10° N 01:12:23 44° ENE 01:12:39 43° E
Cosmos 2322 Rocket 2.6 01:13:04 30° S 01:15:47 59° ESE 01:21:20 10° NNE
Cosmos 2221 4.2 01:14:28 10° NNW 01:16:11 20° NW 01:16:11 20° NW
Cosmos 1953 Rocket 4.5 01:19:48 33° WNW 01:19:48 33° WNW 01:23:06 10° NNW
USA 281 3.7 01:12:45 10° NNE 01:19:10 56° ESE 01:23:59 18° S
Cosmos 1295 Rocket 4.3 01:17:50 34° SSW 01:20:37 80° W 01:26:44 10° N
Cosmos 2333 Rocket 2.4 01:17:56 32° S 01:20:40 71° ESE 01:26:21 10° NNE
Cosmos 2219 Rocket 4.0 01:16:40 10° SSE 01:21:15 26° ESE 01:25:50 10° NE
Cosmos 2184 Rocket 3.9 01:21:12 30° SSW 01:24:33 79° W 01:30:55 10° N
Aurora 2 Rocket 2.0 01:28:34 53° SE 01:28:34 53° SE 01:31:22 10° E
Hubble Space Telescope 1.3 01:27:10 35° NW 01:28:16 46° N 01:31:59 10° ENE
Meteor 1-5 Rocket 4.3 01:27:20 34° SSW 01:29:55 64° W 01:35:42 10° N
Meteor 1-19 Rocket 4.2 01:25:57 10° NNW 01:31:18 56° W 01:34:11 27° SSW
USA 234 4.4 01:27:54 10° NNE 01:33:25 31° NW 01:36:53 19° W
Cosmos 2154 Rocket 3.9 01:30:37 24° SSW 01:34:34 76° W 01:40:48 10° N
Meteor 2-4 Rocket 4.4 01:30:03 10° N 01:35:14 51° E 01:40:24 10° SSE
Meteor 1-28 Rocket 2.8 01:34:08 32° SSE 01:35:33 83° ENE 01:38:53 10° N
Intelsat 5-2 Rocket 1.8 01:36:14 79° SSE 01:36:14 79° SSE 01:38:32 10° E
SL-16 R/B 2.4 01:31:54 10° S 01:38:06 78° WSW 01:44:22 10° NNW
Centaur AC-112 3.4 01:29:35 10° W 01:38:20 38° SW 01:41:19 10° SE
Cosmos 2082 3.6 01:34:27 10° NNW 01:40:07 89° ENE 01:45:44 10° SSE
SL-16 R/B 2.8 01:38:38 30° WSW 01:40:37 40° WNW 01:45:55 10° N
Cosmos 2219 3.3 01:43:06 10° NNW 01:48:34 53° WSW 01:53:59 10° S
ADEOS II 4.2 01:48:55 10° WNW 01:49:40 10° WNW 01:50:13 10° WNW
ARGOS 3.2 01:44:24 10° NNE 01:49:50 80° ESE 01:55:14 10° S
Helios 1A Rocket 4.3 01:47:14 10° SE 01:50:28 34° ENE 01:53:42 10° N
ADEOS Rocket 3.7 01:44:20 10° NNE 01:52:02 81° ESE 01:59:47 10° S
Meteor 2-10 4.2 01:47:00 10° S 01:52:30 78° E 01:57:49 10° N
Cosmos 921 Rocket 3.5 01:49:26 10° NNW 01:53:28 37° W 01:55:43 21° SSW
Cosmos 1707 2.1 01:50:19 10° N 01:53:35 85° W 01:56:28 13° S
Cosmos 2263 Rocket 2.7 01:50:42 10° NW 01:55:43 35° WSW 02:00:43 10° SSW
JB-3 4.1 01:52:44 10° SSE 01:56:22 84° E 02:00:03 10° N
Intelsat 5-1 Rocket 4.1 01:41:15 10° W 02:01:30 85° S 02:07:51 10° E
Cosmos 1805 3.3 01:58:45 10° S 02:02:08 64° E 02:05:33 10° NNE
SWIFT 2.3 02:04:37 23° WSW 02:06:27 45° S 02:09:55 10° ESE
Uosat 12 SS-18 rocket 4.5 02:05:04 20° SW 02:07:36 43° WNW 02:11:43 10° N
KORONAS-FOTON 4.3 02:06:28 10° NNW 02:09:40 33° W 02:12:06 15° SSW
BREEZE-M DEB (TANK) 4.1 02:06:51 10° NNW 02:09:42 49° NE 02:17:13 10° SE
Cosmos 44 Rocket 4.4 02:07:35 17° WSW 02:10:04 27° WNW 02:14:01 10° N
Meteor 1-27 Rocket 4.4 02:05:24 10° NNW 02:10:43 35° W 02:16:00 10° SSW
NOSS 3-2 (A) 2.8 02:07:15 15° SSW 02:11:08 79° WNW 02:16:19 10° NNE
Cosmos 1151 Rocket 3.7 02:07:55 10° N 02:12:09 56° E 02:16:19 10° SSE
IRS-1D 3.7 02:07:41 10° NNE 02:12:36 72° ESE 02:17:29 10° S
Cosmos 2333 4.3 02:09:16 13° SSW 02:14:22 61° WNW 02:19:57 10° N
NOSS 2-2 (C) 4.4 02:12:29 10° S 02:16:42 40° ESE 02:19:58 10° NE
USA 276 3.0 02:16:08 17° W 02:17:29 25° NW 02:19:37 10° NNE
Cosmos 2227 4.3 02:17:57 10° NNW 02:23:40 83° ENE 02:29:23 10° SSE
H-2A R/B 3.7 02:22:14 10° NW 02:24:48 14° WNW 02:27:21 10° WSW
Cosmos 405 Rocket 2.2 02:24:07 10° SSW 02:27:20 63° W 02:30:33 10° N
CENTAUR R/B 3.6 02:24:37 10° WSW 02:28:28 22° NW 02:32:59 10° N
Cosmos 1939 Rocket 3.0 02:26:27 10° N 02:30:11 50° WNW 02:33:55 10° SSW
Cosmos 1844 4.4 02:25:26 10° N 02:31:05 62° ENE 02:36:46 10° SSE
BlueWalker 3 3.4 02:29:08 10° NNW 02:32:34 40° NE 02:35:59 10° ESE
Delta 2 Rocket 3.9 02:31:18 10° W 02:35:20 47° NNW 02:39:12 10° NE
OAO 3 Rocket 4.3 02:34:30 10° W 02:38:43 34° NNW 02:42:55 10° NE
ISS -2.9 02:36:01 10° NNW 02:39:18 56° NE 02:42:35 10° SE
Cosmos 1766 4.5 02:38:33 10° SSE 02:41:43 38° E 02:44:55 10° NNE
Iridium 4 Rocket 3.9 02:37:12 10° SSW 02:42:51 61° W 02:48:35 10° N
Cosmos 1269 Rocket 4.4 02:38:54 10° NNW 02:43:50 41° W 02:48:44 10° S
Cosmos 2360 Rocket 3.5 02:39:54 10° WSW 02:44:09 22° WNW 02:48:27 10° NNW
Cosmos 2341 Rocket 4.2 02:40:20 10° SSW 02:46:22 55° W 02:52:25 10° N
ACS3 Solar Sail 2.0 02:40:53 10° NNE 02:46:54 80° E 02:53:05 10° S
ATLAS 2AS CENTAUR R/B 3.0 02:41:19 10° NW 02:47:32 42° WSW 02:53:48 10° S
Centaur D-1A AC-31 2.7 02:28:39 10° WSW 02:50:37 87° NNW 02:55:03 10° ENE
